Weather History for KELY - May, 2013

Change the Weather History Date:

Monday, May 27, 2013

  Actual Average Record
Temperature  
Mean Temperature 53 °F 54 °F  
Max Temperature 75 °F 72 °F 88 °F (1986)
Min Temperature 31 °F 36 °F 19 °F (1953)
Degree Days  
Heating Degree Days 12 11  
Month to date heating degree days 373 400  
Since 1 July heating degree days 7008 7303  
Cooling Degree Days 0 0  
Month to date cooling degree days 0 0  
Year to date cooling degree days 0 0  
Growing Degree Days 2 (Base 50)    
Moisture  
Dew Point 20 °F    
Average Humidity 45    
Maximum Humidity 83    
Minimum Humidity 7    
Precipitation  
Precipitation 0.01 in 0.03 in 0.67 in (1979)
Month to date precipitation 0.49 0.96  
Year to date precipitation 3.05 4.29  
Snow  
Snow 0.00 in 0.00 in 1.50 in (1956)
Month to date snowfall 0.0 2.2  
Since 1 July snowfall 65.0 50.6  
Snow Depth 0.00 in    
Sea Level Pressure  
Sea Level Pressure 29.81 in    
Wind  
Wind Speed 9 mph (SSW)    
Max Wind Speed 25 mph    
Max Gust Speed 31 mph    
Visibility 10 miles    
Events Rain    
T = Trace of Precipitation, MM = Missing Value Source: NWS Daily Summary

Daily Weather History Graph

Daily Weather History Graph

Search for Another Location

Airport or City:

Trip Planner

Search our weather history database for the weather conditions in past years. The results will help you decide how hot, cold, wet, or windy it might be!

Date:

Astronomy

May. 27, 2013 Rise Set
Actual Time 5:16 AM PDT 7:56 PM PDT
Civil Twilight 4:45 AM PDT 8:28 PM PDT
Nautical Twilight 4:06 AM PDT 9:07 PM PDT
Astronomical Twilight 3:22 AM PDT 9:51 PM PDT
Moon 10:39 PM PDT (5/27) 7:58 AM PDT (5/27)
Length of Visible Light 15h 42m
Length of Day
14h 39m
Waning Gibbous, 90% of the Moon is Illuminated
May 27
Waning Gibbous
May 31
Last Quarter
Jun 8
New
Jun 16
First Quarter
Jun 23
Full

Hourly Weather History & Observations

Time (PDT) Temp. Windchill Dew Point Humidity Pressure Visibility Wind Dir Wind Speed Gust Speed Precip Events Conditions
12:53 AM 39.9 °F 34.5 °F 16.0 °F 38% 29.85 in 10.0 mi SE 8.1 mph - N/A   Clear
1:53 AM 37.0 °F 31.6 °F 16.0 °F 42% 29.87 in 10.0 mi South 6.9 mph - N/A   Clear
2:53 AM 41.0 °F 34.7 °F 14.0 °F 33% 29.86 in 10.0 mi SSE 10.4 mph - N/A   Clear
3:53 AM 35.1 °F 29.3 °F 15.1 °F 44% 29.88 in 10.0 mi South 6.9 mph - N/A   Clear
4:53 AM 33.1 °F 26.9 °F 16.0 °F 50% 29.90 in 10.0 mi SSE 6.9 mph - N/A   Clear
5:53 AM 30.9 °F 23.5 °F 15.1 °F 52% 29.92 in 10.0 mi SSE 8.1 mph - N/A   Clear
6:53 AM 41.0 °F 37.1 °F 18.0 °F 40% 29.89 in 10.0 mi South 5.8 mph - N/A   Clear
7:53 AM 51.1 °F - 19.0 °F 28% 29.87 in 10.0 mi Calm Calm - N/A   Clear
8:53 AM 55.0 °F - 21.9 °F 28% 29.86 in 10.0 mi Variable 5.8 mph - N/A   Clear
9:53 AM 61.0 °F - 23.0 °F 23% 29.83 in 10.0 mi NNE 4.6 mph - N/A   Clear
10:53 AM 63.0 °F - 21.0 °F 20% 29.83 in 10.0 mi West 5.8 mph - N/A   Clear
11:53 AM 66.9 °F - 19.9 °F 17% 29.81 in 10.0 mi Variable 3.5 mph - N/A   Clear
12:53 PM 68.0 °F - 17.1 °F 14% 29.80 in 10.0 mi SE 10.4 mph - N/A   Clear
1:53 PM 69.1 °F - 17.1 °F 14% 29.78 in 10.0 mi SSW 9.2 mph - N/A   Clear
2:53 PM 71.1 °F - 9.0 °F 9% 29.73 in 10.0 mi WSW 6.9 mph 23.0 mph N/A   Clear
3:53 PM 73.0 °F - 5.0 °F 7% 29.72 in 10.0 mi SSW 18.4 mph 24.2 mph N/A   Clear
4:53 PM 70.0 °F - 6.1 °F 8% 29.74 in 10.0 mi SW 13.8 mph 24.2 mph N/A   Mostly Cloudy
5:53 PM 68.0 °F - 15.1 °F 13% 29.75 in 10.0 mi Variable 5.8 mph - N/A   Overcast
6:53 PM 63.0 °F - 19.9 °F 19% 29.75 in 10.0 mi NW 19.6 mph 26.5 mph N/A   Mostly Cloudy
7:00 PM 62.6 °F - 19.4 °F 19% 29.93 in 10.0 mi WNW 18.4 mph 26.5 mph N/A   Mostly Cloudy
7:53 PM 59.0 °F - 24.1 °F 26% 29.74 in 10.0 mi WNW 20.7 mph 28.8 mph N/A   Partly Cloudy
8:53 PM 57.0 °F - 30.0 °F 36% 29.78 in 10.0 mi West 23.0 mph 29.9 mph N/A   Mostly Cloudy
9:53 PM 48.0 °F - 41.0 °F 77% 29.83 in 10.0 mi Calm Calm - 0.01 in Rain Light Rain
10:53 PM 46.9 °F - 41.0 °F 80% 29.75 in 10.0 mi SSW 8.1 mph - 0.00 in   Mostly Cloudy
11:53 PM 45.0 °F - 39.9 °F 82% 29.74 in 10.0 mi Calm Calm - N/A   Partly Cloudy